Home > Weather > Offenbach > Past weeks

Flag for Germany Past Weather in Offenbach, Hesse, Germany — Yesterday and Last 2 Weeks

Now
86 °F

Passing clouds.


Feels Like: 87 °F
Forecast: 68 / 88 °F
Wind: 7 mph from East

Location: Frankfurt-M-Flughafen Airport

Current Time: Aug 27, 2016 at 12:05:33 PM

Latest Report: Aug 27, 2016 at 11:20 AM


Visibility: N/A

Pressure: 30.07 "Hg

Humidity: 46%

Dew Point: 63 °F

Location of OffenbachLocation

Past Weather in Offenbach — Graph

°F

Offenbach Temperature Yesterday

Maximum temperature yesterday: 93 °F (at 5:20 PM)
Minimum temperature yesterday: 63 °F (at 2:50 AM)
Average temperature yesterday: 76 °F

High & Low Weather Summary for the Past Weeks

 TemperatureHumidityPressure
High93 °F (Aug 26, 5:20 PM)100% (Aug 13, 3:50 AM)30.39 "Hg (Aug 13, 3:50 AM)
Low52 °F (Aug 23, 6:20 AM)29% (Aug 25, 6:20 PM)29.80 "Hg (Aug 18, 1:50 PM)
Average69 °F67%30.09 "Hg
* Reported Aug 12 10:20 AM — Aug 27 10:50 AM, Offenbach, Weather by CustomWeather, © 2016

Note: Actual official high and low records may vary slightly from our data, if they occured in-between our weather recording intervals... More about our weather records

Advertising

Offenbach Weather History for the Previous 24 Hours

Scroll right to see more
 ConditionsComfort  
Time TempWeatherWind HumidityBarometerVisibility
10:50 AM
Sat, Aug 27
82 °FPassing clouds.7 mph55%30.07 "HgN/A
10:20 AM81 °FPassing clouds.7 mph58%30.07 "HgN/A
9:50 AM79 °FSunny.7 mph61%30.07 "Hg10 mi
9:20 AM77 °FPassing clouds.8 mph65%30.07 "HgN/A
8:50 AM75 °FPassing clouds.5 mph69%30.07 "HgN/A
8:20 AM73 °FPassing clouds.6 mph74%30.07 "HgN/A
7:50 AM72 °FSunny.7 mph78%30.07 "Hg10 mi
7:20 AM70 °FPassing clouds.5 mph83%30.07 "HgN/A
6:50 AM68 °FClear.6 mph83%30.07 "Hg10 mi
6:20 AM68 °FClear.7 mph88%30.07 "Hg10 mi
5:50 AM68 °FClear.5 mph88%30.07 "Hg10 mi
5:20 AM68 °FClear.6 mph88%30.07 "Hg10 mi
4:50 AM68 °FClear.8 mph88%30.07 "Hg10 mi
4:20 AM70 °FClear.8 mph83%30.07 "Hg10 mi
3:50 AM70 °FClear.8 mph83%30.07 "Hg10 mi
3:20 AM70 °FPassing clouds.3 mph83%30.04 "HgN/A
2:50 AM70 °FClear.3 mph83%30.04 "Hg10 mi
2:20 AM70 °FClear.5 mph83%30.04 "Hg10 mi
1:50 AM73 °FClear.5 mph74%30.04 "Hg10 mi
1:20 AM73 °FClear.3 mph74%30.04 "Hg10 mi
12:50 AM72 °FClear.6 mph78%30.04 "Hg10 mi
12:20 AM72 °FPassing clouds.3 mph78%30.04 "HgN/A
11:50 PM
Fri, Aug 26
72 °FClear.5 mph78%30.04 "Hg10 mi
11:20 PM72 °FClear.3 mph78%30.04 "Hg10 mi
10:50 PM73 °FPassing clouds.6 mph74%30.04 "HgN/A
10:20 PM75 °FPassing clouds.3 mph69%30.04 "HgN/A
9:50 PM75 °FClear.3 mph69%30.04 "Hg10 mi
9:20 PM75 °FSunny.2 mph69%30.04 "Hg10 mi
8:50 PM77 °FSunny.2 mph61%30.01 "Hg10 mi
8:20 PM79 °FPassing clouds.5 mph61%30.01 "HgN/A
7:50 PM82 °FSunny.2 mph55%30.01 "Hg10 mi
7:20 PM90 °FSunny.2 mph43%30.01 "Hg10 mi
6:50 PM91 °FPassing clouds.3 mph36%30.01 "HgN/A
6:20 PM93 °FPassing clouds.5 mph30%30.01 "HgN/A
5:50 PM93 °FPassing clouds.5 mph32%30.01 "HgN/A
5:20 PM93 °FPassing clouds.5 mph34%30.01 "HgN/A
4:50 PM91 °FPassing clouds.5 mph36%30.01 "HgN/A
4:20 PM91 °FPassing clouds.6 mph36%30.01 "HgN/A
3:50 PM91 °FSunny.3 mph36%30.01 "Hg10 mi
3:20 PM91 °FSunny.3 mph38%30.04 "Hg10 mi
2:50 PM91 °FSunny.3 mph38%30.04 "Hg10 mi
2:20 PM88 °FSunny.5 mph40%30.04 "Hg10 mi
1:50 PM88 °FSunny.5 mph43%30.04 "Hg10 mi
1:20 PM86 °FPassing clouds.5 mph43%30.04 "HgN/A
12:50 PM84 °FPassing clouds.5 mph45%30.04 "HgN/A
12:20 PM82 °FPassing clouds.6 mph48%30.04 "HgN/A
Weather by CustomWeather, © 2016

See weather overviewHow to use our weather pages